Overview Statistics Trail Chart Weather Telemetry Raw packets
 

This is the latest recevied weather packets stored in our database for station/object DG3NAD-21. If no packets are shown the sender has not sent any weather packets the latest 10 day(s).

<< 25 26 27 28 29 30 31 >>
Time Temp. Humidity Pressure Rain* Wind** Luminosity Snow
1788016312 26.11° C 40% 1017.5 hPa - - - -
1788015412 26.11° C 41% 1017.5 hPa - - - -
1788014512 26.11° C 41% 1017.6 hPa - - - -
1788013612 26.11° C 42% 1017.6 hPa - - - -
1788012712 25.56° C 42% 1017.7 hPa - - - -
1788011812 25.56° C 43% 1017.8 hPa - - - -
1788010912 25.56° C 43% 1017.9 hPa - - - -
1788010011 25.56° C 44% 1018 hPa - - - -
1788009111 25.56° C 43% 1018.1 hPa - - - -
1788008210 25.56° C 43% 1018.1 hPa - - - -
1788007310 26.11° C 44% 1018.1 hPa - - - -
1788006410 25° C 45% 1018.2 hPa - - - -
1788005509 25.56° C 44% 1018.3 hPa - - - -
1788004608 25° C 45% 1018.5 hPa - - - -
1788003708 25° C 45% 1018.7 hPa - - - -
1788002807 25° C 46% 1018.8 hPa - - - -
1788001907 24.44° C 47% 1018.8 hPa - - - -
1788001007 23.89° C 48% 1019.1 hPa - - - -
1788000107 25° C 47% 1019.2 hPa - - - -
1787999207 24.44° C 49% 1019.4 hPa - - - -
1787998307 24.44° C 50% 1019.5 hPa - - - -
1787997407 23.89° C 50% 1019.6 hPa - - - -
1787996506 23.33° C 51% 1019.6 hPa - - - -
1787995606 23.33° C 52% 1019.8 hPa - - - -
1787994706 22.78° C 53% 1019.8 hPa - - - -

* Rain since midnight (hover to see other rain measurements)
** Current wind speed in m/s (hover to see current wind gust speed)